Weather History for Elefsis, Greece

Change the Weather History Date:

Tuesday, March 19, 2013

  Actual Average Record
Temperature  
Mean Temperature 58 °F -  
Max Temperature 64 °F 63 °F 75 °F (2005)
Min Temperature 51 °F 47 °F 35 °F (1998)
Degree Days  
Heating Degree Days 8    
Growing Degree Days 8 (Base 50)    
Moisture  
Dew Point 50 °F    
Average Humidity 76    
Maximum Humidity 94    
Minimum Humidity 63    
Precipitation  
Precipitation 0.00 in - - ()
Sea Level Pressure  
Sea Level Pressure 29.83 in    
Wind  
Wind Speed 4 mph ()    
Max Wind Speed 13 mph    
Max Gust Speed -    
Visibility 6.2 miles    
Events      
Averages and records for this station are not official NWS values.
T = Trace of Precipitation, MM = Missing Value Source: Averaged Metar Reports

Daily Weather History Graph

Daily Weather History Graph

Search for Another Location

Airport:

Trip Planner

Search our weather history database for the weather conditions in past years. The results will help you decide how hot, cold, wet, or windy it might be!

Date:

Astronomy

Mar. 19, 2013 Rise Set
Actual Time 6:30 AM EET 6:36 PM EET
Civil Twilight 6:04 AM EET 7:02 PM EET
Nautical Twilight 5:34 AM EET 7:33 PM EET
Astronomical Twilight 5:02 AM EET 8:04 PM EET
Moon 11:10 AM EET (3/19) 1:03 AM EET (3/19)
Length of Visible Light 12h 58m
Length of Day
12h 05m
Waxing Crescent, 47% of the Moon is Illuminated
Mar 19
Waxing Crescent
Mar 19
First Quarter
Mar 27
Full
Apr 3
Last Quarter
Apr 10
New

Hourly Weather History & Observations

Time (EET) Temp. Dew Point Humidity Pressure Visibility Wind Dir Wind Speed Gust Speed Precip Events Conditions
12:50 AM 53.6 °F 46.4 °F 77% 29.92 in 6.2 mi Calm Calm - N/A   Mostly Cloudy
1:50 AM 53.6 °F 46.4 °F 77% 29.89 in 6.2 mi Calm Calm - N/A   Mostly Cloudy
2:50 AM 51.8 °F 44.6 °F 76% 29.89 in 6.2 mi Calm Calm - N/A   Mostly Cloudy
3:50 AM 53.6 °F 46.4 °F 77% 29.86 in 6.2 mi Calm Calm - N/A   Scattered Clouds
4:50 AM 53.6 °F 46.4 °F 77% 29.86 in 6.2 mi Calm Calm - N/A   Mostly Cloudy
5:20 AM 51.8 °F 46.4 °F 82% 29.86 in 6.2 mi Calm Calm - N/A   Scattered Clouds
5:50 AM 51.8 °F 46.4 °F 82% 29.86 in 6.2 mi Calm Calm - N/A   Scattered Clouds
6:20 AM 51.8 °F 46.4 °F 82% 29.86 in 6.2 mi Calm Calm - N/A   Mostly Cloudy
6:50 AM 51.8 °F 46.4 °F 82% 29.86 in 6.2 mi Calm Calm - N/A   Mostly Cloudy
7:20 AM 53.6 °F 48.2 °F 82% 29.86 in 6.2 mi SE 3.5 mph - N/A   Mostly Cloudy
7:50 AM 53.6 °F 48.2 °F 82% 29.89 in 6.2 mi Calm Calm - N/A   Mostly Cloudy
8:20 AM 57.2 °F 50.0 °F 77% 29.89 in 6.2 mi SSE 6.9 mph - N/A   Scattered Clouds
8:50 AM 59.0 °F 50.0 °F 72% 29.86 in 6.2 mi South 10.4 mph - N/A   Scattered Clouds
9:20 AM 59.0 °F 50.0 °F 72% 29.86 in 6.2 mi SSE 9.2 mph - N/A   Scattered Clouds
9:50 AM 59.0 °F 48.2 °F 67% 29.86 in 6.2 mi South 9.2 mph - N/A   Mostly Cloudy
10:20 AM 59.0 °F 48.2 °F 67% 29.86 in 6.2 mi South 6.9 mph - N/A   Mostly Cloudy
10:50 AM 60.8 °F 50.0 °F 68% 29.86 in 6.2 mi SSE 10.4 mph - N/A   Scattered Clouds
11:20 AM 60.8 °F 50.0 °F 68% 29.86 in 6.2 mi South 10.4 mph - N/A   Scattered Clouds
11:50 AM 62.6 °F 50.0 °F 63% 29.83 in 6.2 mi South 6.9 mph - N/A   Scattered Clouds
12:20 PM 62.6 °F 51.8 °F 68% 29.83 in 6.2 mi SSE 12.7 mph - N/A   Scattered Clouds
12:50 PM 62.6 °F 51.8 °F 68% 29.83 in 6.2 mi SSE 10.4 mph - N/A   Scattered Clouds
1:20 PM 62.6 °F 51.8 °F 68% 29.83 in 6.2 mi SSE 12.7 mph - N/A   Scattered Clouds
1:50 PM 62.6 °F 51.8 °F 68% 29.80 in 6.2 mi SSE 11.5 mph - N/A   Mostly Cloudy
2:20 PM 62.6 °F 51.8 °F 68% 29.80 in 6.2 mi SSE 12.7 mph - N/A   Mostly Cloudy
2:50 PM 64.4 °F 53.6 °F 68% 29.80 in 6.2 mi SSE 11.5 mph - N/A   Partly Cloudy
3:20 PM 62.6 °F 51.8 °F 68% 29.80 in 6.2 mi SSE 10.4 mph - N/A   Partly Cloudy
3:50 PM 62.6 °F 51.8 °F 68% 29.77 in 6.2 mi SSE 11.5 mph - N/A   Scattered Clouds
4:20 PM 62.6 °F 53.6 °F 72% 29.77 in 6.2 mi SSE 12.7 mph - N/A   Scattered Clouds
4:50 PM 62.6 °F 53.6 °F 72% 29.77 in 6.2 mi SSE 9.2 mph - N/A   Scattered Clouds
5:20 PM 62.6 °F 53.6 °F 72% 29.77 in 6.2 mi South 11.5 mph - N/A   Partly Cloudy
5:50 PM 60.8 °F 53.6 °F 77% 29.77 in 6.2 mi SSE 5.8 mph - N/A   Partly Cloudy
6:20 PM 60.8 °F 53.6 °F 77% 29.77 in 6.2 mi SSE 6.9 mph - N/A   Partly Cloudy
6:50 PM 59.0 °F 51.8 °F 77% 29.77 in 6.2 mi SE 4.6 mph - N/A   Partly Cloudy
7:20 PM 57.2 °F 51.8 °F 82% 29.77 in 6.2 mi ESE 4.6 mph - N/A   Partly Cloudy
7:50 PM 57.2 °F 51.8 °F 82% 29.77 in 6.2 mi East 3.5 mph - N/A   Partly Cloudy
8:20 PM 57.2 °F 51.8 °F 82% 29.77 in 6.2 mi ENE 3.5 mph - N/A   Partly Cloudy
8:50 PM 55.4 °F 51.8 °F 88% 29.77 in 6.2 mi ENE 3.5 mph - N/A   Partly Cloudy
9:20 PM 55.4 °F 51.8 °F 88% 29.77 in 6.2 mi Calm Calm - N/A   Partly Cloudy
9:50 PM 55.4 °F 50.0 °F 82% 29.80 in 6.2 mi Calm Calm - N/A   Partly Cloudy
10:20 PM 53.6 °F 50.0 °F 88% 29.80 in 6.2 mi Calm Calm - N/A   Partly Cloudy
10:50 PM 51.8 °F 50.0 °F 94% 29.83 in 6.2 mi Calm Calm - N/A   Partly Cloudy
11:50 PM 51.8 °F 50.0 °F 94% 29.83 in 6.2 mi North 5.8 mph - N/A   Partly Cloudy